{"data":{"norad_id":58822,"intl_designator":"2024-016C","name":"2024-016C","alt_names":[],"object_type":"PAYLOAD","status":"ACTIVE","operator":null,"country":"PRC","launch_date":"2024-01-23","launch_site_code":"JSC","launch_vehicle":null,"mission":null,"orbit_class":"UNKNOWN","rcs_meters":null,"size_class":null,"mass_kg":null,"dimensions":null,"purposes":[],"wikipedia_slug":null,"has_3d_model":false,"image_url":null,"decayed_at":null,"tle_current":{"epoch":"2026-05-25T05:29:47.298624Z","epoch_age_seconds":48567,"freshness":"FRESH","line1":"1 58822U 24016C   26145.22901966  .00007643  00000+0  31060-3 0  9993","line2":"2 58822  97.4366 225.9718 0008575 278.4316  81.5949 15.24808091129637","mean_motion":15.24808091,"eccentricity":0.0008575,"inclination_deg":97.4366,"raan_deg":225.9718,"arg_perigee_deg":278.4316,"mean_anomaly_deg":81.5949,"bstar":0.0003106,"rev_number":12963,"period_min":94.438113786215,"perigee_km":485.47116481886,"apogee_km":497.25235519227,"semimajor_km":6869.4987600056,"source":"CELESTRAK","updated_at":"2026-05-25T13:38:01.003652Z"}}}